| time (UTC) | temp C | wind direction | speed KPH | gust KPH | rain 1hr cm | rain 24hr cm | rain mn cm | humidity % | barometer mb |
| 20260506201053 | 20 | 313 | 0.0 | 0.0 | 0.00 | 0.00 | 0.00 | 68 | 1019.6 |
| 20260506200051 | 20 | 129 | 0.0 | 0.0 | 0.00 | 0.00 | 0.00 | 65 | 1019.7 |
| 20260506195105 | 20 | 145 | 0.0 | 0.0 | 0.00 | 0.00 | 0.00 | 69 | 1019.7 |
| 20260506194127 | 19 | 119 | 0.0 | 0.0 | 0.00 | 0.00 | 0.00 | 69 | 1019.9 |
| 20260506193111 | 18 | 183 | 0.0 | 0.0 | 0.00 | 0.00 | 0.00 | 70 | 1020.0 |
| 20260506192040 | 18 | 52 | 0.0 | 0.0 | 0.00 | 0.00 | 0.00 | 71 | 1020.1 |
| 20260506185928 | 18 | 333 | 0.0 | 0.0 | 0.00 | 0.00 | 0.00 | 71 | 1020.3 |
| 20260506184906 | 18 | 182 | 0.0 | 0.0 | 0.00 | 0.00 | 0.00 | 71 | 1020.2 |
| 20260506182735 | 18 | 191 | 0.0 | 0.0 | 0.00 | 0.00 | 0.00 | 73 | 1020.3 |
| 20260506181709 | 17 | 192 | 0.0 | 0.0 | 0.00 | 0.00 | 0.00 | 72 | 1020.2 |
| 20260506180643 | 17 | 21 | 0.0 | 0.0 | 0.00 | 0.00 | 0.00 | 73 | 1020.2 |
| 20260506175655 | 17 | 311 | 0.0 | 0.0 | 0.00 | 0.00 | 0.00 | 74 | 1020.2 |
| 20260506174621 | 17 | 160 | 0.0 | 0.0 | 0.00 | 0.00 | 0.00 | 74 | 1020.2 |
| 20260506173607 | 16 | 184 | 0.0 | 0.0 | 0.00 | 0.00 | 0.00 | 76 | 1020.2 |
| 20260506172604 | 16 | 184 | 0.0 | 0.0 | 0.00 | 0.00 | 0.00 | 76 | 1020.3 |
| 20260506171617 | 16 | 175 | 0.0 | 0.0 | 0.00 | 0.00 | 0.00 | 76 | 1020.4 |
| 20260506170632 | 16 | 188 | 0.0 | 0.0 | 0.00 | 0.00 | 0.00 | 75 | 1020.4 |
| 20260506165624 | 16 | 175 | 0.0 | 0.0 | 0.00 | 0.00 | 0.00 | 77 | 1020.4 |
| 20260506163502 | 15 | 232 | 0.0 | 0.0 | 0.00 | 0.00 | 0.00 | 79 | 1020.3 |
| 20260506162509 | 15 | 9 | 0.0 | 0.0 | 0.00 | 0.00 | 0.00 | 80 | 1020.4 |
| 20260506161524 | 15 | 63 | 0.0 | 0.0 | 0.00 | 0.00 | 0.00 | 79 | 1020.5 |
| 20260506160500 | 15 | 119 | 0.0 | 0.0 | 0.00 | 0.00 | 0.00 | 82 | 1020.4 |
| 20260506155457 | 14 | 94 | 0.0 | 0.0 | 0.00 | 0.00 | 0.00 | 81 | 1020.4 |
| 20260506154423 | 14 | 97 | 0.0 | 0.0 | 0.00 | 0.00 | 0.00 | 84 | 1020.4 |
| 20260506151203 | 13 | 82 | 0.0 | 0.0 | 0.00 | 0.00 | 0.00 | 85 | 1020.4 |
| 20260506150226 | 13 | 75 | 0.0 | 0.0 | 0.00 | 0.00 | 0.00 | 86 | 1020.3 |
| 20260506144103 | 12 | 49 | 0.0 | 0.0 | 0.00 | 0.00 | 0.00 | 87 | 1020.2 |
| 20260506143057 | 12 | 52 | 0.0 | 0.0 | 0.00 | 0.00 | 0.00 | 88 | 1020.2 |
| 20260506142117 | 12 | 49 | 0.0 | 0.0 | 0.00 | 0.00 | 0.00 | 88 | 1020.1 |
| 20260506141142 | 12 | 72 | 0.0 | 0.0 | 0.00 | 0.00 | 0.00 | 88 | 1019.9 |
| 20260506135003 | 12 | 72 | 0.0 | 0.0 | 0.00 | 0.00 | 0.00 | 87 | 1019.8 |
| 20260506134024 | 12 | 72 | 0.0 | 0.0 | 0.00 | 0.00 | 0.00 | 86 | 1019.7 |
| 20260506133028 | 12 | 72 | 0.0 | 0.0 | 0.00 | 0.00 | 0.00 | 86 | 1019.7 |
| 20260506132023 | 12 | 72 | 0.0 | 0.0 | 0.00 | 0.00 | 0.00 | 85 | 1019.6 |
| 20260506131007 | 12 | 72 | 0.0 | 0.0 | 0.00 | 0.00 | 0.00 | 85 | 1019.5 |
| 20260506125958 | 12 | 72 | 0.0 | 0.0 | 0.00 | 0.00 | 0.00 | 85 | 1019.5 |
| 20260506124936 | 12 | 72 | 0.0 | 0.0 | 0.00 | 0.00 | 0.00 | 85 | 1019.5 |
| 20260506123910 | 12 | 72 | 0.0 | 0.0 | 0.00 | 0.00 | 0.00 | 85 | 1019.4 |
| 20260506122902 | 12 | 72 | 0.0 | 0.0 | 0.00 | 0.00 | 0.00 | 85 | 1019.4 |
| 20260506120733 | 12 | 72 | 0.0 | 0.0 | 0.00 | 0.00 | 0.00 | 84 | 1019.3 |
| 20260506115716 | 12 | 72 | 0.0 | 0.0 | 0.00 | 0.00 | 0.00 | 84 | 1019.3 |
| 20260506114740 | 12 | 72 | 0.0 | 0.0 | 0.00 | 0.00 | 0.00 | 84 | 1019.2 |
| 20260506113730 | 12 | 74 | 0.0 | 0.0 | 0.00 | 0.00 | 0.00 | 85 | 1019.1 |
| 20260506112739 | 12 | 70 | 0.0 | 0.0 | 0.00 | 0.00 | 0.00 | 84 | 1019.1 |
| 20260506110629 | 12 | 71 | 0.0 | 0.0 | 0.00 | 0.00 | 0.00 | 84 | 1018.9 |
| 20260506104514 | 12 | 73 | 0.0 | 0.0 | 0.00 | 0.00 | 0.00 | 84 | 1018.8 |
| 20260506103537 | 12 | 73 | 0.0 | 0.0 | 0.00 | 0.00 | 0.00 | 84 | 1018.8 |
| 20260506102512 | 12 | 72 | 0.0 | 0.0 | 0.00 | 0.00 | 0.00 | 84 | 1018.8 |
| 20260506101458 | 12 | 37 | 0.0 | 0.0 | 0.00 | 0.00 | 0.00 | 84 | 1018.6 |
| 20260506095315 | 12 | 28 | 0.0 | 0.0 | 0.00 | 0.00 | 0.00 | 85 | 1018.7 |
| 20260506094254 | 12 | 29 | 0.0 | 0.0 | 0.00 | 0.00 | 0.00 | 86 | 1018.7 |
| 20260506091016 | 12 | 29 | 0.0 | 0.0 | 0.00 | 0.03 | 0.00 | 85 | 1018.7 |
| 20260506090008 | 12 | 29 | 0.0 | 0.0 | 0.00 | 0.05 | 0.00 | 84 | 1018.7 |
| 20260506083823 | 12 | 34 | 0.0 | 0.0 | 0.00 | 0.05 | 0.00 | 84 | 1018.7 |
| 20260506082833 | 12 | 51 | 0.0 | 0.0 | 0.00 | 0.05 | 0.00 | 85 | 1018.7 |
| 20260506081835 | 12 | 51 | 0.0 | 0.0 | 0.00 | 0.08 | 0.00 | 85 | 1018.8 |
| 20260506080849 | 12 | 51 | 0.0 | 0.0 | 0.00 | 0.13 | 0.00 | 85 | 1018.8 |
| 20260506072721 | 13 | 52 | 0.0 | 0.0 | 0.00 | 0.28 | 0.00 | 85 | 1018.5 |
| 20260506071744 | 13 | 0 | 0.0 | 0.0 | 0.00 | 0.28 | 0.00 | 84 | 1018.4 |
| 20260506070709 | 13 | 0 | 0.0 | 0.0 | 0.00 | 0.30 | 0.00 | 85 | 1018.4 |
| 20260506060430 | 13 | 159 | 0.0 | 0.0 | 0.00 | 0.38 | 0.30 | 87 | 1018.0 |
| 20260506051111 | 13 | 128 | 0.0 | 0.0 | 0.00 | 0.46 | 0.30 | 87 | 1017.8 |
| 20260506050130 | 13 | 128 | 0.0 | 0.0 | 0.00 | 0.46 | 0.30 | 86 | 1017.8 |
| 20260506044020 | 13 | 78 | 0.0 | 0.0 | 0.00 | 0.53 | 0.30 | 85 | 1017.5 |
| 20260506043010 | 13 | 78 | 0.0 | 0.0 | 0.00 | 0.53 | 0.30 | 84 | 1017.4 |
| 20260506040827 | 13 | 123 | 0.0 | 0.0 | 0.00 | 0.53 | 0.30 | 82 | 1017.2 |
| 20260506035832 | 13 | 123 | 0.0 | 0.0 | 0.00 | 0.53 | 0.30 | 82 | 1017.0 |
| 20260506034827 | 13 | 123 | 0.0 | 0.0 | 0.00 | 0.53 | 0.30 | 80 | 1016.8 |
| 20260506033836 | 13 | 136 | 0.0 | 0.0 | 0.00 | 0.53 | 0.30 | 81 | 1016.8 |
| 20260506032832 | 13 | 144 | 0.0 | 0.0 | 0.00 | 0.53 | 0.30 | 80 | 1016.6 |
| 20260506031818 | 13 | 280 | 0.0 | 0.0 | 0.00 | 0.53 | 0.30 | 79 | 1016.4 |
| 20260506030843 | 14 | 126 | 0.0 | 0.0 | 0.00 | 0.53 | 0.30 | 78 | 1016.3 |
| 20260506025843 | 14 | 124 | 0.0 | 0.0 | 0.00 | 0.53 | 0.30 | 79 | 1016.2 |
| 20260506024823 | 14 | 72 | 0.0 | 0.0 | 0.00 | 0.53 | 0.30 | 78 | 1016.2 |
| 20260506023804 | 15 | 9 | 0.0 | 0.0 | 0.00 | 0.53 | 0.30 | 77 | 1016.2 |
| 20260506022759 | 15 | 181 | 0.0 | 0.0 | 0.00 | 0.53 | 0.30 | 77 | 1016.1 |
| 20260506015528 | 15 | 268 | 0.0 | 0.0 | 0.00 | 0.53 | 0.30 | 75 | 1015.7 |
| 20260506013336 | 15 | 333 | 0.0 | 0.0 | 0.00 | 0.53 | 0.30 | 75 | 1015.6 |
| 20260506012354 | 15 | 355 | 0.0 | 0.0 | 0.00 | 0.53 | 0.30 | 76 | 1015.6 |
| 20260506011333 | 16 | 144 | 0.0 | 0.0 | 0.00 | 0.53 | 0.30 | 75 | 1015.7 |
| 20260506010330 | 16 | 111 | 0.0 | 0.0 | 0.00 | 0.53 | 0.30 | 76 | 1015.7 |
| 20260506005326 | 16 | 146 | 0.0 | 0.0 | 0.00 | 0.53 | 0.30 | 75 | 1015.6 |
| 20260506004324 | 16 | 159 | 0.0 | 0.0 | 0.00 | 0.53 | 0.30 | 76 | 1015.6 |
| 20260506003325 | 16 | 164 | 0.0 | 0.0 | 0.00 | 0.53 | 0.30 | 76 | 1015.5 |
| 20260506002327 | 16 | 138 | 0.0 | 0.0 | 0.00 | 0.53 | 0.30 | 77 | 1015.4 |
| 20260506001336 | 16 | 9 | 0.0 | 0.0 | 0.00 | 0.53 | 0.30 | 76 | 1015.2 |
| 20260506000340 | 15 | 15 | 0.0 | 0.0 | 0.00 | 0.53 | 0.30 | 78 | 1015.3 |
| 20260505235318 | 15 | 57 | 0.0 | 0.0 | 0.00 | 0.53 | 0.30 | 78 | 1015.4 |
| 20260505233211 | 16 | 152 | 0.0 | 0.0 | 0.00 | 0.53 | 0.30 | 78 | 1015.4 |
| 20260505232149 | 16 | 355 | 0.0 | 0.0 | 0.00 | 0.53 | 0.30 | 79 | 1015.4 |
| 20260505225956 | 16 | 19 | 0.0 | 0.0 | 0.00 | 0.53 | 0.30 | 78 | 1015.4 |
| 20260505225005 | 16 | 70 | 0.0 | 0.0 | 0.00 | 0.53 | 0.30 | 77 | 1015.4 |
| 20260505223942 | 17 | 311 | 0.0 | 0.0 | 0.00 | 0.53 | 0.30 | 77 | 1015.3 |
| 20260505222942 | 17 | 327 | 0.0 | 0.0 | 0.00 | 0.53 | 0.30 | 77 | 1015.3 |
| 20260505221909 | 17 | 157 | 0.0 | 0.0 | 0.00 | 0.53 | 0.30 | 78 | 1015.4 |
| 20260505220902 | 16 | 117 | 0.0 | 0.0 | 0.00 | 0.53 | 0.30 | 79 | 1015.3 |
| 20260505215924 | 16 | 164 | 0.0 | 0.0 | 0.00 | 0.53 | 0.30 | 77 | 1015.5 |
| 20260505213738 | 16 | 139 | 0.0 | 0.0 | 0.00 | 0.53 | 0.30 | 79 | 1015.6 |
| 20260505211632 | 16 | 237 | 0.0 | 0.0 | 0.00 | 0.53 | 0.30 | 81 | 1015.7 |
| 20260505210600 | 16 | 196 | 0.0 | 0.0 | 0.00 | 0.53 | 0.30 | 80 | 1015.8 |
| 20260505205526 | 16 | 142 | 0.0 | 0.0 | 0.00 | 0.53 | 0.30 | 82 | 1015.7 |
| 20260505204527 | 15 | 158 | 0.0 | 0.0 | 0.00 | 0.53 | 0.30 | 80 | 1015.7 |
| 20260505202338 | 15 | 355 | 0.0 | 0.0 | 0.00 | 0.53 | 0.30 | 83 | 1015.7 |